Showing default

OPS 5798 (TRANSIT 5B-4), 897

Orbit data source: Space-Track

OPS 5798 (TRANSIT 5B-4), 897 is a payload satellite owned by USN BuWeps (US) in LEO that was launched on Tue, 06 Oct 1964 UTC via a THOR ABLESTAR launch vehicle from the Air Force Western Test Range (AFWTR). Payload-class satellites include a variety of spacecraft equipped with specific instruments for various scientific and technological missions. These include communications satellites like Starlink; space stations such as the ISS; scientific satellites like the Hubble; Earth observation satellites from companies like Planet Labs, Umbra, and HawkEye 360; GPS; miniature CubeSats for education and research; and military/defense satellites.

Loading next visibility...
Identifier
897, 1964-063B
Orbit
LEO
Country
Flag of USUS
Related business
Manufacturer
NAFI
Mission
Spacecraft
Bus & Motor
TRANSIT 5, Unknown motor
Mass
~54 kg wet, ~54 kg dry
Launch date (UTC)
1964-10-06 (61 years ago)
Launch vehicle
THOR ABLESTAR
Launch site
Air Force Western Test Range (AFWTR)
Object type
Payload
Rocket body
Debris
Shape & HBR
Unknown
Radar Cross Section
Medium (>0.1 m² and <1 m²)

Expand to show TLE details & history
Last TLE update: 8 hours ago

TLE from 8 hours ago
0 OPS 5798 (TRANSIT 5B-4)
1   897U 64063B   25307.77144053  .00000094  00000-0  12624-3 0  9992
2   897  90.2335  70.2027 0021478 112.0533  19.8523 13.53706094 14723
Epoch: 2025-11-03T18:30Z
TLE epoch observation values (Epoch: 2025-11-03T18:30:52.461Z)
Latitude
48.10277°
Longitude
-70.52499°
Altitude
1,051.216 km
Speed
7.338 km/s
True Right ascension
16h 41m 50s
True Declination
47° 56' 19"
Sunlit
Object was in daylight at epoch
Visualization orbit readout
Latitude
Unknown
Longitude
Unknown
Altitude
Unknown
Speed
Unknown
Apparent Right ascension
Unknown
Apparent Declination
Unknown
Sunlit
N/A
Visualization observer readout
Local Sidereal Time
21:59:11
Azimuth
Unknown
Elevation
Unknown
Doppler factor
Unknown
Orbital elements
Apogee altitude
1,071.665 km
Perigee altitude
1,039.732 km
Semi-major axis
7,433.836 km
Eccentricity
0.00215
Inclination
90.2335°
RAAN
70.2027°
Arg. of periapsis
112.0533°
True anomaly
19.93609°
Mean anomaly
19.8523°
Eccentric anomaly
19.89418°
Mean motion
3.38629 °/min
Orbital period
106.31 mins
BSTAR
0.00012624
Loading maneuver chart data...
Computing Atmospheric mass density...
Loading historical data...
Loading historical data...
Loading historical data...
Loading historical data...
Loading historical data...
Loading historical data...
Loading historical data...
Other satellites on launch #63 in the year 1964 (1964-10-06 UTC)

Documentation

Showing up to 5 results
|